Time,TemperatureF,DewpointF,PressureIn,WindDirection,WindDirectionDegrees,WindSpeedMPH,WindSpeedGustMPH,Humidity,HourlyPrecipIn,Conditions,Clouds,dailyrainin,SoftwareType,DateUTC
2013-12-11 00:06:00,23.3,18.0,30.27,SW,215,2.0,6.0,79,0.00,,,0.00,weatherlink.com 1.10,2013-12-11 06:06:00,
2013-12-11 00:21:00,23.4,18.0,30.27,SSW,200,1.0,7.0,79,0.00,,,0.00,weatherlink.com 1.10,2013-12-11 06:21:00,
2013-12-11 00:36:00,23.1,18.0,30.27,South,176,1.0,5.0,79,0.00,,,0.00,weatherlink.com 1.10,2013-12-11 06:36:00,
2013-12-11 00:51:00,22.9,18.0,30.27,SE,133,1.0,5.0,80,0.00,,,0.00,weatherlink.com 1.10,2013-12-11 06:51:00,
2013-12-11 01:06:00,22.8,18.0,30.28,South,180,3.0,4.0,80,0.00,,,0.00,weatherlink.com 1.10,2013-12-11 07:06:00,
2013-12-11 01:21:00,22.5,17.0,30.28,SW,217,1.0,5.0,80,0.00,,,0.00,weatherlink.com 1.10,2013-12-11 07:21:00,
2013-12-11 01:36:00,22.3,17.0,30.28,South,174,0.0,3.0,81,0.00,,,0.00,weatherlink.com 1.10,2013-12-11 07:36:00,
2013-12-11 01:51:00,22.3,17.0,30.29,SE,146,1.0,4.0,81,0.00,,,0.00,weatherlink.com 1.10,2013-12-11 07:51:00,
2013-12-11 02:06:00,22.2,18.0,30.30,WSW,250,3.0,3.0,82,0.00,,,0.00,weatherlink.com 1.10,2013-12-11 08:06:00,
2013-12-11 02:21:00,22.4,17.0,30.31,South,169,1.0,3.0,81,0.00,,,0.00,weatherlink.com 1.10,2013-12-11 08:21:00,
2013-12-11 02:36:00,22.3,17.0,30.32,SSE,163,0.0,3.0,81,0.00,,,0.00,weatherlink.com 1.10,2013-12-11 08:36:00,
2013-12-11 02:51:00,22.3,18.0,30.33,SW,231,0.0,2.0,82,0.00,,,0.00,weatherlink.com 1.10,2013-12-11 08:51:00,
2013-12-11 03:06:00,22.3,18.0,30.34,SW,232,1.0,3.0,82,0.00,,,0.00,weatherlink.com 1.10,2013-12-11 09:06:00,
2013-12-11 03:21:00,22.0,17.0,30.34,WSW,252,1.0,2.0,82,0.00,,,0.00,weatherlink.com 1.10,2013-12-11 09:21:00,
2013-12-11 03:36:00,21.6,17.0,30.35,West,275,2.0,3.0,83,0.00,,,0.00,weatherlink.com 1.10,2013-12-11 09:36:00,
2013-12-11 03:51:00,21.5,17.0,30.34,WSW,257,1.0,3.0,84,0.00,,,0.00,weatherlink.com 1.10,2013-12-11 09:51:00,
2013-12-11 04:06:00,21.5,17.0,30.35,WSW,240,1.0,3.0,84,0.00,,,0.00,weatherlink.com 1.10,2013-12-11 10:06:00,
2013-12-11 04:21:00,21.5,18.0,30.35,WSW,253,0.0,3.0,85,0.00,,,0.00,weatherlink.com 1.10,2013-12-11 10:21:00,
2013-12-11 04:36:00,21.7,18.0,30.36,NW,317,1.0,3.0,85,0.00,,,0.00,weatherlink.com 1.10,2013-12-11 10:36:00,
2013-12-11 04:51:00,22.1,18.0,30.37,West,277,1.0,7.0,85,0.00,,,0.00,weatherlink.com 1.10,2013-12-11 10:51:00,
2013-12-11 05:06:00,22.5,18.0,30.38,NNE,30,2.0,4.0,84,0.00,,,0.00,weatherlink.com 1.10,2013-12-11 11:06:00,
2013-12-11 05:21:00,22.8,19.0,30.38,NNW,337,0.0,4.0,84,0.00,,,0.00,weatherlink.com 1.10,2013-12-11 11:21:00,
2013-12-11 05:36:00,23.3,20.0,30.40,North,356,0.0,4.0,86,0.00,,,0.00,weatherlink.com 1.10,2013-12-11 11:36:00,
2013-12-11 05:51:00,23.7,20.0,30.42,NNW,333,1.0,4.0,86,0.00,,,0.00,weatherlink.com 1.10,2013-12-11 11:51:00,
2013-12-11 06:07:00,23.9,20.0,30.44,NNW,344,2.0,5.0,86,0.00,,,0.00,weatherlink.com 1.10,2013-12-11 12:07:00,
2013-12-11 06:22:00,24.1,21.0,30.46,NNE,22,4.0,4.0,86,0.00,,,0.00,weatherlink.com 1.10,2013-12-11 12:22:00,
2013-12-11 06:37:00,24.4,20.0,30.48,North,352,3.0,6.0,84,0.00,,,0.00,weatherlink.com 1.10,2013-12-11 12:37:00,
2013-12-11 06:52:00,24.6,20.0,30.48,NNW,333,4.0,8.0,81,0.00,,,0.00,weatherlink.com 1.10,2013-12-11 12:52:00,
2013-12-11 07:07:00,24.4,18.0,30.50,NW,313,4.0,12.0,77,0.00,,,0.00,weatherlink.com 1.10,2013-12-11 13:07:00,
2013-12-11 07:22:00,24.0,17.0,30.51,NNW,330,5.0,11.0,75,0.00,,,0.00,weatherlink.com 1.10,2013-12-11 13:22:00,
2013-12-11 07:37:00,23.4,17.0,30.52,NNE,14,3.0,10.0,75,0.00,,,0.00,weatherlink.com 1.10,2013-12-11 13:37:00,
2013-12-11 07:52:00,23.0,16.0,30.53,NNW,346,5.0,10.0,74,0.00,,,0.00,weatherlink.com 1.10,2013-12-11 13:52:00,
2013-12-11 08:07:00,22.4,16.0,30.54,North,6,4.0,7.0,76,0.00,,,0.00,weatherlink.com 1.10,2013-12-11 14:07:00,
2013-12-11 08:22:00,21.9,15.0,30.55,NW,321,4.0,8.0,76,0.00,,,0.00,weatherlink.com 1.10,2013-12-11 14:22:00,
2013-12-11 08:37:00,21.8,15.0,30.55,North,359,3.0,7.0,75,0.00,,,0.00,weatherlink.com 1.10,2013-12-11 14:37:00,
2013-12-11 08:52:00,21.6,15.0,30.57,NW,326,2.0,10.0,75,0.00,,,0.00,weatherlink.com 1.10,2013-12-11 14:52:00,
2013-12-11 09:07:00,21.7,15.0,30.59,ESE,103,4.0,8.0,76,0.00,,,0.00,weatherlink.com 1.10,2013-12-11 15:07:00,
2013-12-11 09:22:00,21.7,15.0,30.61,NE,48,4.0,7.0,75,0.00,,,0.00,weatherlink.com 1.10,2013-12-11 15:22:00,
2013-12-11 09:37:00,21.7,14.0,30.62,NNW,333,8.0,12.0,73,0.00,,,0.00,weatherlink.com 1.10,2013-12-11 15:37:00,
2013-12-11 09:52:00,22.4,14.0,30.62,NNW,335,4.0,10.0,70,0.00,,,0.00,weatherlink.com 1.10,2013-12-11 15:52:00,
2013-12-11 10:07:00,23.0,14.0,30.63,NNW,339,3.0,13.0,67,0.00,,,0.00,weatherlink.com 1.10,2013-12-11 16:07:00,
2013-12-11 10:22:00,23.6,14.0,30.63,NNW,330,3.0,7.0,67,0.00,,,0.00,weatherlink.com 1.10,2013-12-11 16:22:00,
2013-12-11 10:37:00,23.8,13.0,30.63,North,349,3.0,7.0,64,0.00,,,0.00,weatherlink.com 1.10,2013-12-11 16:37:00,
2013-12-11 10:52:00,24.1,12.0,30.64,NW,314,2.0,8.0,61,0.00,,,0.00,weatherlink.com 1.10,2013-12-11 16:52:00,
2013-12-11 11:07:00,24.6,12.0,30.64,ESE,105,3.0,7.0,58,0.00,,,0.00,weatherlink.com 1.10,2013-12-11 17:07:00,
2013-12-11 11:22:00,24.5,11.0,30.64,NNW,331,5.0,9.0,56,0.00,,,0.00,weatherlink.com 1.10,2013-12-11 17:22:00,
2013-12-11 11:38:00,24.9,11.0,30.64,NW,305,3.0,6.0,57,0.00,,,0.00,weatherlink.com 1.10,2013-12-11 17:38:00,
2013-12-11 11:53:00,24.7,11.0,30.63,NNE,19,6.0,6.0,56,0.00,,,0.00,weatherlink.com 1.10,2013-12-11 17:53:00,
2013-12-11 12:09:00,25.2,10.0,30.63,NE,39,3.0,9.0,53,0.00,,,0.00,weatherlink.com 1.10,2013-12-11 18:09:00,
2013-12-11 12:23:00,25.7,8.0,30.62,NNW,327,2.0,6.0,48,0.00,,,0.00,weatherlink.com 1.10,2013-12-11 18:23:00,
2013-12-11 12:38:00,25.7,8.0,30.62,NNE,12,2.0,8.0,48,0.00,,,0.00,weatherlink.com 1.10,2013-12-11 18:38:00,
2013-12-11 12:53:00,25.9,10.0,30.61,NW,307,2.0,7.0,52,0.00,,,0.00,weatherlink.com 1.10,2013-12-11 18:53:00,
2013-12-11 13:08:00,26.9,12.0,30.61,NE,40,0.0,5.0,53,0.00,,,0.00,weatherlink.com 1.10,2013-12-11 19:08:00,
2013-12-11 13:23:00,27.0,11.0,30.61,NE,42,2.0,8.0,50,0.00,,,0.00,weatherlink.com 1.10,2013-12-11 19:23:00,
2013-12-11 13:38:00,27.1,11.0,30.62,WSW,256,2.0,5.0,50,0.00,,,0.00,weatherlink.com 1.10,2013-12-11 19:38:00,
2013-12-11 13:53:00,27.1,11.0,30.62,NNE,16,3.0,7.0,50,0.00,,,0.00,weatherlink.com 1.10,2013-12-11 19:53:00,
2013-12-11 14:08:00,26.8,10.0,30.61,North,4,2.0,6.0,49,0.00,,,0.00,weatherlink.com 1.10,2013-12-11 20:08:00,
2013-12-11 14:26:00,26.6,10.0,30.61,NNE,18,2.0,5.0,49,0.00,,,0.00,weatherlink.com 1.10,2013-12-11 20:26:00,
2013-12-11 14:38:00,26.5,10.0,30.61,NW,305,2.0,5.0,49,0.00,,,0.00,weatherlink.com 1.10,2013-12-11 20:38:00,
2013-12-11 14:53:00,26.5,9.0,30.61,North,352,3.0,6.0,48,0.00,,,0.00,weatherlink.com 1.10,2013-12-11 20:53:00,
2013-12-11 15:08:00,26.3,8.0,30.61,North,352,2.0,7.0,45,0.00,,,0.00,weatherlink.com 1.10,2013-12-11 21:08:00,
2013-12-11 15:23:00,25.7,7.0,30.62,North,4,2.0,5.0,46,0.00,,,0.00,weatherlink.com 1.10,2013-12-11 21:23:00,
2013-12-11 15:38:00,25.1,6.0,30.62,NE,39,2.0,4.0,45,0.00,,,0.00,weatherlink.com 1.10,2013-12-11 21:38:00,
2013-12-11 15:53:00,24.6,6.0,30.62,North,360,2.0,5.0,46,0.00,,,0.00,weatherlink.com 1.10,2013-12-11 21:53:00,
2013-12-11 16:08:00,24.2,7.0,30.63,North,10,1.0,3.0,47,0.00,,,0.00,weatherlink.com 1.10,2013-12-11 22:08:00,
2013-12-11 16:23:00,23.7,7.0,30.63,NNE,13,2.0,4.0,49,0.00,,,0.00,weatherlink.com 1.10,2013-12-11 22:23:00,
2013-12-11 16:38:00,22.9,7.0,30.64,NNE,23,0.0,4.0,50,0.00,,,0.00,weatherlink.com 1.10,2013-12-11 22:38:00,
2013-12-11 16:53:00,22.3,8.0,30.64,WNW,296,0.0,3.0,54,0.00,,,0.00,weatherlink.com 1.10,2013-12-11 22:53:00,
2013-12-11 17:08:00,21.4,8.0,30.64,NNW,345,0.0,1.0,57,0.00,,,0.00,weatherlink.com 1.10,2013-12-11 23:08:00,
2013-12-11 17:23:00,20.7,8.0,30.65,NNW,327,1.0,2.0,59,0.00,,,0.00,weatherlink.com 1.10,2013-12-11 23:23:00,
2013-12-11 17:38:00,20.2,8.0,30.65,West,261,0.0,4.0,60,0.00,,,0.00,weatherlink.com 1.10,2013-12-11 23:38:00,
2013-12-11 17:53:00,19.5,7.0,30.65,NW,325,2.0,3.0,59,0.00,,,0.00,weatherlink.com 1.10,2013-12-11 23:53:00,
2013-12-11 18:08:00,18.8,7.0,30.66,NNE,12,0.0,3.0,60,0.00,,,0.00,weatherlink.com 1.10,2013-12-12 00:08:00,
2013-12-11 18:38:00,17.6,6.0,30.66,West,274,2.0,5.0,61,0.00,,,0.00,weatherlink.com 1.10,2013-12-12 00:38:00,
2013-12-11 18:53:00,17.0,6.0,30.67,WSW,248,0.0,3.0,61,0.00,,,0.00,weatherlink.com 1.10,2013-12-12 00:53:00,
2013-12-11 19:08:00,16.2,5.0,30.67,WNW,300,0.0,1.0,62,0.00,,,0.00,weatherlink.com 1.10,2013-12-12 01:08:00,
2013-12-11 19:23:00,15.7,5.0,30.67,NNW,330,0.0,2.0,63,0.00,,,0.00,weatherlink.com 1.10,2013-12-12 01:23:00,
2013-12-11 19:38:00,15.5,5.0,30.67,NNW,330,0.0,2.0,63,0.00,,,0.00,weatherlink.com 1.10,2013-12-12 01:38:00,
2013-12-11 19:53:00,15.1,5.0,30.66,NNE,26,0.0,1.0,63,0.00,,,0.00,weatherlink.com 1.10,2013-12-12 01:53:00,
2013-12-11 20:08:00,14.4,5.0,30.66,NNE,26,0.0,0.0,65,0.00,,,0.00,weatherlink.com 1.10,2013-12-12 02:08:00,
2013-12-11 20:23:00,13.7,5.0,30.66,NNE,26,0.0,1.0,68,0.00,,,0.00,weatherlink.com 1.10,2013-12-12 02:23:00,
2013-12-11 20:39:00,13.6,5.0,30.66,NNE,26,0.0,0.0,68,0.00,,,0.00,weatherlink.com 1.10,2013-12-12 02:39:00,
2013-12-11 20:54:00,13.0,4.0,30.66,NNE,26,0.0,0.0,68,0.00,,,0.00,weatherlink.com 1.10,2013-12-12 02:54:00,
2013-12-11 21:09:00,12.1,4.0,30.66,NNE,26,0.0,0.0,70,0.00,,,0.00,weatherlink.com 1.10,2013-12-12 03:09:00,
2013-12-11 21:24:00,12.3,5.0,30.66,NNE,26,0.0,1.0,71,0.00,,,0.00,weatherlink.com 1.10,2013-12-12 03:24:00,
2013-12-11 21:39:00,12.3,5.0,30.66,NNE,26,0.0,1.0,71,0.00,,,0.00,weatherlink.com 1.10,2013-12-12 03:39:00,
2013-12-11 21:54:00,11.8,4.0,30.66,NNE,27,0.0,0.0,71,0.00,,,0.00,weatherlink.com 1.10,2013-12-12 03:54:00,
2013-12-11 22:09:00,11.8,4.0,30.65,NNE,26,0.0,0.0,72,0.00,,,0.00,weatherlink.com 1.10,2013-12-12 04:09:00,
2013-12-11 22:24:00,11.0,4.0,30.65,NNE,26,0.0,0.0,72,0.00,,,0.00,weatherlink.com 1.10,2013-12-12 04:24:00,
2013-12-11 22:39:00,10.9,5.0,30.64,NNE,26,0.0,1.0,76,0.00,,,0.00,weatherlink.com 1.10,2013-12-12 04:39:00,
2013-12-11 22:54:00,11.4,5.0,30.64,NNE,27,0.0,1.0,76,0.00,,,0.00,weatherlink.com 1.10,2013-12-12 04:54:00,
2013-12-11 23:09:00,11.8,5.0,30.65,NNE,27,0.0,1.0,75,0.00,,,0.00,weatherlink.com 1.10,2013-12-12 05:09:00,
2013-12-11 23:24:00,11.9,5.0,30.65,NNE,27,0.0,0.0,75,0.00,,,0.00,weatherlink.com 1.10,2013-12-12 05:24:00,
2013-12-11 23:39:00,12.1,6.0,30.66,ESE,120,0.0,1.0,75,0.00,,,0.00,weatherlink.com 1.10,2013-12-12 05:39:00,
2013-12-11 23:54:00,12.3,6.0,30.66,SE,125,0.0,1.0,75,0.00,,,0.00,weatherlink.com 1.10,2013-12-12 05:54:00,